EW6527 Weather Reports


Display with metric or nautical units.
time (UTC)temp
F
wind
direction
speed
MPH
gust
MPH
rain 1hr
in
rain 24hr
in
rain mn
in
humidity
%
barometer
mb
20260905203541 69 0 0.0 0.0 0.00 0.00 0.00 50 1029.1
20260905202541 69 0 0.0 0.0 0.00 0.00 0.00 49 1029.0
20260905201540 69 0 0.0 0.0 0.00 0.00 0.00 49 1028.9
20260905200541 69 0 0.0 0.0 0.00 0.00 0.00 49 1029.0
20260905195541 69 0 0.0 0.0 0.00 0.00 0.00 49 1028.9
20260905194541 69 0 0.0 0.0 0.00 0.00 0.00 49 1028.8
20260905194519 70 0 0.0 0.0 0.00 0.00 0.00 49 1028.7
20260905192541 70 0 0.0 0.0 0.00 0.00 0.00 49 1028.6
20260905192451 70 0 0.0 0.0 0.00 0.00 0.00 50 1028.6
20260905190538 70 0 0.0 0.0 0.00 0.00 0.00 50 1028.6
20260905185532 70 0 0.0 0.0 0.00 0.00 0.00 50 1028.6
20260905184533 70 0 0.0 0.0 0.00 0.00 0.00 50 1028.4
20260905183533 70 0 0.0 0.0 0.00 0.00 0.00 49 1028.3
20260905182532 70 0 0.0 0.0 0.00 0.00 0.00 50 1028.3
20260905182010 70 0 0.0 0.0 0.00 0.00 0.00 50 1028.3
20260905180533 71 0 0.0 0.0 0.00 0.00 0.00 49 1028.3
20260905175531 71 0 0.0 0.0 0.00 0.00 0.00 49 1028.1
20260905174531 71 0 0.0 0.0 0.00 0.00 0.00 49 1028.0
20260905173532 71 0 0.0 0.0 0.00 0.00 0.00 48 1027.9
20260905172531 72 0 0.0 0.0 0.00 0.00 0.00 48 1027.8
20260905172015 72 0 0.0 0.0 0.00 0.00 0.00 48 1027.6
20260905170532 73 0 0.0 0.0 0.00 0.00 0.00 47 1027.5
20260905165531 73 0 0.0 0.0 0.00 0.00 0.00 47 1027.5
20260905165016 73 0 0.0 0.0 0.00 0.00 0.00 46 1027.2
20260905163947 74 0 0.0 0.0 0.00 0.00 0.00 45 1027.1
20260905163717 74 0 0.0 0.0 0.00 0.00 0.00 46 1027.2
20260905161530 74 0 0.0 0.0 0.00 0.00 0.00 45 1027.1
20260905161459 74 0 0.0 0.0 0.00 0.00 0.00 44 1027.1
20260905155529 75 0 0.0 0.0 0.00 0.00 0.00 43 1026.9
20260905154530 75 0 0.0 0.0 0.00 0.00 0.00 41 1026.8
20260905153528 75 0 0.0 0.0 0.00 0.00 0.00 41 1026.8
20260905152527 76 0 0.0 0.0 0.00 0.00 0.00 40 1026.7
20260905151528 77 0 0.0 0.0 0.00 0.00 0.00 39 1026.6
20260905150528 77 0 0.0 0.0 0.00 0.00 0.00 38 1026.6
20260905145528 78 0 0.0 0.0 0.00 0.00 0.00 38 1026.6
20260905144529 79 0 0.0 0.0 0.00 0.00 0.00 39 1026.6
20260905143528 79 0 0.0 0.0 0.00 0.00 0.00 40 1026.5
20260905142528 79 0 0.0 0.0 0.00 0.00 0.00 40 1026.6
20260905141526 80 0 0.0 0.0 0.00 0.00 0.00 40 1026.7
20260905141012 80 0 0.0 0.0 0.00 0.00 0.00 40 1026.7
20260905140005 78 0 0.0 0.0 0.00 0.00 0.00 42 1026.9
20260905134526 79 0 0.0 0.0 0.00 0.00 0.00 41 1026.8
20260905133525 80 0 0.0 0.0 0.00 0.00 0.00 39 1026.8
20260905132526 81 0 0.0 0.0 0.00 0.00 0.00 39 1026.8
20260905131526 80 0 0.0 0.0 0.00 0.00 0.00 40 1026.6
20260905130526 79 0 0.0 0.0 0.00 0.00 0.00 43 1026.6
20260905125526 77 0 0.0 0.0 0.00 0.00 0.00 46 1026.6
20260905124526 75 0 0.0 0.0 0.00 0.00 0.00 48 1026.7
20260905123526 75 0 0.0 0.0 0.00 0.00 0.00 50 1026.6
20260905122526 74 0 0.0 0.0 0.00 0.00 0.00 51 1026.6
20260905121524 75 0 0.0 0.0 0.00 0.00 0.00 49 1026.5
20260905120522 74 0 0.0 0.0 0.00 0.00 0.00 50 1026.8
20260905115521 75 0 0.0 0.0 0.00 0.00 0.00 49 1026.8
20260905114522 75 0 0.0 0.0 0.00 0.00 0.00 49 1026.6
20260905113522 75 0 0.0 0.0 0.00 0.00 0.00 49 1026.7
20260905112521 74 0 0.0 0.0 0.00 0.00 0.00 52 1026.8
20260905111522 73 0 0.0 0.0 0.00 0.00 0.00 56 1026.8
20260905110521 71 0 0.0 0.0 0.00 0.00 0.00 56 1026.9
20260905105912 70 0 0.0 0.0 0.00 0.00 0.00 60 1027.0
20260905105651 71 0 0.0 0.0 0.00 0.00 0.00 58 1026.9
20260905103521 69 0 0.0 0.0 0.00 0.00 0.00 62 1027.2
20260905102950 69 0 0.0 0.0 0.00 0.00 0.00 61 1026.9
20260905101520 69 0 0.0 0.0 0.00 0.00 0.00 62 1027.2
20260905100519 69 0 0.0 0.0 0.00 0.00 0.00 64 1026.9
20260905095517 68 0 0.0 0.0 0.00 0.00 0.00 65 1026.9
20260905094959 67 0 0.0 0.0 0.00 0.00 0.00 67 1026.9
20260905093518 67 0 0.0 0.0 0.00 0.00 0.00 72 1027.0
20260905092517 66 0 0.0 0.0 0.00 0.00 0.00 73 1027.0
20260905092016 66 0 0.0 0.0 0.00 0.00 0.00 74 1027.0
20260905090517 65 0 0.0 0.0 0.00 0.00 0.00 75 1027.3
20260905085956 65 0 0.0 0.0 0.00 0.00 0.00 75 1027.2
20260905084953 65 0 0.0 0.0 0.00 0.00 0.00 74 1027.2
20260905083953 65 0 0.0 0.0 0.00 0.00 0.00 73 1027.2
20260905082956 65 0 0.0 0.0 0.00 0.00 0.00 73 1027.2
20260905081515 64 0 0.0 0.0 0.00 0.00 0.00 74 1027.2
20260905081445 64 0 0.0 0.0 0.00 0.00 0.00 74 1027.1
20260905075515 64 0 0.0 0.0 0.00 0.00 0.00 74 1026.8
20260905074949 64 0 0.0 0.0 0.00 0.00 0.00 74 1027.0
20260905073513 64 0 0.0 0.0 0.00 0.00 0.00 74 1026.6
20260905073425 64 0 0.0 0.0 0.00 0.00 0.00 74 1026.7
20260905071512 64 0 0.0 0.0 0.00 0.00 0.00 74 1026.8
20260905070512 64 0 0.0 0.0 0.00 0.00 0.00 75 1026.5
20260905065512 64 0 0.0 0.0 0.00 0.00 0.00 75 1026.6
20260905064510 64 0 0.0 0.0 0.00 0.00 0.00 75 1026.2
20260905063511 64 0 0.0 0.0 0.00 0.00 0.00 75 1026.3
20260905062511 64 0 0.0 0.0 0.00 0.00 0.00 75 1026.2
20260905061510 65 0 0.0 0.0 0.00 0.00 0.00 76 1025.8
20260905060958 65 0 0.0 0.0 0.00 0.00 0.00 76 1025.7
20260905055508 65 0 0.0 0.0 0.00 0.00 0.00 75 1026.0
20260905054507 65 0 0.0 0.0 0.00 0.00 0.00 74 1025.6
20260905053507 65 0 0.0 0.0 0.00 0.00 0.00 74 1025.6
20260905052505 65 0 0.0 0.0 0.00 0.00 0.00 74 1025.6
20260905051512 65 0 0.0 0.0 0.00 0.00 0.00 74 1025.1
20260905050513 65 0 0.0 0.0 0.00 0.00 0.00 75 1025.2
20260905045512 65 0 0.0 0.0 0.00 0.00 0.00 76 1024.7
20260905044513 65 0 0.0 0.0 0.00 0.00 0.00 76 1025.1
20260905043501 65 0 0.0 0.0 0.00 0.00 0.00 76 1024.9
20260905042501 65 0 0.0 0.0 0.00 0.00 0.00 76 1024.6
20260905041500 66 0 0.0 0.0 0.00 0.00 0.00 76 1024.5
20260905040501 65 0 0.0 0.0 0.00 0.00 0.00 77 1024.2
20260905035505 66 0 0.0 0.0 0.00 0.00 0.00 76 1024.1
20260905034941 66 0 0.0 0.0 0.00 0.00 0.00 75 1023.9
20260905033506 66 0 0.0 0.0 0.00 0.00 0.00 75 1024.0
20260905032511 66 0 0.0 0.0 0.00 0.00 0.00 74 1024.0
20260905031501 66 0 0.0 0.0 0.00 0.00 0.00 74 1023.9
20260905030502 66 0 0.0 0.0 0.00 0.00 0.00 74 1023.9
20260905025501 66 0 0.0 0.0 0.00 0.00 0.00 74 1024.0
20260905024501 66 0 0.0 0.0 0.00 0.00 0.00 74 1024.1
20260905023500 67 0 0.0 0.0 0.00 0.00 0.00 73 1024.2
20260905022500 67 0 0.0 0.0 0.00 0.00 0.00 73 1024.0
20260905021501 67 0 0.0 0.0 0.00 0.00 0.00 71 1024.1
20260905020506 68 0 0.0 0.0 0.00 0.00 0.00 70 1024.0
20260905015512 68 0 0.0 0.0 0.00 0.00 0.00 69 1023.9
20260905014511 68 0 0.0 0.0 0.00 0.00 0.00 69 1023.8
20260905013504 69 0 0.0 0.0 0.00 0.00 0.00 68 1023.8
20260905012506 69 0 0.0 0.0 0.00 0.00 0.00 67 1023.9
20260905011508 69 0 0.0 0.0 0.00 0.00 0.00 66 1023.6
20260905010502 69 0 0.0 0.0 0.00 0.00 0.00 65 1023.5
20260905005456 70 0 0.0 0.0 0.00 0.00 0.00 64 1023.2
20260905004456 70 0 0.0 0.0 0.00 0.00 0.00 61 1023.2
20260905003933 71 0 0.0 0.0 0.00 0.00 0.00 62 1022.5
20260905002456 71 0 0.0 0.0 0.00 0.00 0.00 60 1022.5
20260905001456 72 0 0.0 0.0 0.00 0.00 0.00 58 1022.1
20260905000456 72 0 0.0 0.0 0.00 0.00 0.00 58 1021.8
20260904235455 73 0 0.0 0.0 0.00 0.00 0.00 58 1021.4
20260904234454 74 0 0.0 0.0 0.00 0.00 0.00 61 1021.2
20260904233454 74 0 0.0 0.0 0.00 0.00 0.00 60 1021.0
20260904232451 75 0 0.0 0.0 0.00 0.00 0.00 60 1020.8
20260904231451 75 0 0.0 0.0 0.00 0.00 0.00 62 1020.5
20260904230450 75 0 0.0 0.0 0.00 0.00 0.00 60 1020.3
20260904225450 75 0 0.0 0.0 0.00 0.00 0.00 59 1020.1
20260904224450 75 0 0.0 0.0 0.00 0.00 0.00 59 1019.9
20260904223451 76 0 0.0 0.0 0.00 0.00 0.00 58 1019.2
20260904222933 76 0 0.0 0.0 0.00 0.00 0.00 57 1019.1
20260904221451 76 0 0.0 0.0 0.00 0.00 0.00 56 1019.1
20260904220451 76 0 0.0 0.0 0.00 0.00 0.00 57 1019.2
20260904215451 76 0 0.0 0.0 0.00 0.00 0.00 57 1019.1
20260904214456 76 0 0.0 0.0 0.00 0.00 0.00 57 1019.1
20260904213451 76 0 0.0 0.0 0.00 0.00 0.00 57 1019.4
20260904212451 75 0 0.0 0.0 0.00 0.00 0.00 58 1019.4
20260904211451 75 0 0.0 0.0 0.00 0.00 0.00 58 1019.5
20260904210451 75 0 0.0 0.0 0.00 0.00 0.00 59 1019.5
20260904205452 75 0 0.0 0.0 0.00 0.00 0.00 59 1019.5
20260904204453 76 0 0.0 0.0 0.00 0.00 0.00 59 1019.6